Vertical_Velocity
0 -1 -2 -2 -2 -2 -3 -4 -4 -4 -5 -5 -5 -3 -2 -3 -4 -4 -3 -2 -0 1 2 3 3 3 2 -0 -1 -2 -1 0 1 1 1 3 4 6 6 5 3 1 1 2 3 4 5 4 2 0 -1 -1 -1 -0 0 0 0 0 0 -0 -0 -1 -1 -1 -2 -2 -2 -2 -1 -1 -1 -0 -0 -1 -1 -1 -2 -2 -2 -2 -1 -1 -1 -1 -1 -1
-1 -1 -2 -2 -2 -2 -3 -4 -4 -4 -4 -5 -4 -3 -2 -2 -2 -2 -2 -1 1 2 3 3 3 1 -0 -1 -1 -0 1 1 1 0 -1 -1 -1 -0 1 2 2 3 4 4 4 4 3 1 0 -1 -1 -0 -0 0 0 0 0 0 -0 -1 -1 -1 -1 -2 -2 -2 -1 -1 -1 -0 -0 -0 -1 -1 -1 -2 -2 -2 -1 -1 -1 -1 -0 -0 -0 -1
-1 -2 -3 -2 -2 -2 -2 -3 -4 -4 -4 -4 -3 -2 -1 -0 -0 -0 -0 0 1 2 2 2 1 -0 -0 0 1 1 1 1 1 0 -1 -1 -2 -2 -2 -1 -0 1 1 1 1 1 0 0 0 0 0 0 0 0 0 0 0 0 -0 -1 -1 -2 -2 -2 -2 -2 -2 -1 -1 -1 -1 -1 -1 -1 -2 -2 -2 -2 -1 -1 -1 -1 -0 -0 -0 -0
-1 -1 -3 -3 -3 -2 -2 -2 -3 -3 -3 -3 -3 -2 -0 0 1 1 1 1 1 1 1 -0 -1 -1 -0 0 1 1 2 2 2 1 1 1 1 1 1 2 2 2 2 2 2 1 1 1 1 1 1 1 1 0 0 0 0 0 -0 -1 -1 -2 -2 -2 -2 -2 -1 -1 -1 -1 -1 -1 -1 -1 -1 -1 -1 -1 -1 -1 -1 -1 -0 -0 -0 -0
-1 -1 -3 -3 -3 -3 -3 -2 -2 -3 -3 -3 -2 -1 -0 0 1 1 1 1 0 -0 -1 -1 -1 -1 -1 -1 -0 0 1 2 2 2 3 3 3 4 4 5 5 5 5 4 4 3 3 3 2 2 2 1 1 1 1 1 0 0 -0 -1 -1 -2 -2 -2 -2 -1 -1 -1 -1 -1 -2 -2 -1 -1 -1 -1 -1 -1 -1 -1 -1 -1 -1 -1 -0 -0
-1 -2 -2 -3 -3 -3 -3 -2 -2 -2 -3 -3 -2 -1 -0 0 0 0 -0 -0 -1 -1 -1 -0 -0 -0 -0 -0 -0 -0 0 0 1 1 2 2 3 3 4 4 5 5 4 4 4 3 3 2 2 2 2 2 2 2 1 1 1 0 -0 -1 -1 -1 -1 -1 -1 -1 -1 -1 -2 -2 -2 -2 -2 -1 -1 -1 -1 -1 -1 -1 -1 -1 -1 -1 -1 -1
-2 -2 -2 -2 -3 -3 -2 -2 -2 -2 -2 -2 -2 -2 -1 -0 0 0 0 -0 -0 0 1 1 2 2 2 2 2 1 0 -0 -0 -0 -0 0 1 1 1 1 1 1 1 1 1 1 1 1 2 2 2 2 2 2 2 2 1 1 1 1 0 0 0 0 -0 -0 -1 -1 -2 -2 -2 -2 -2 -1 -1 -1 -1 -1 -1 -1 -1 -1 -1 -1 -1 -2
-2 -3 -3 -2 -3 -3 -3 -2 -1 -1 -0 -1 -2 -2 -2 -1 -0 0 1 1 1 1 2 2 2 2 3 3 3 2 2 1 0 -0 -1 -1 -1 -0 -0 -1 -1 -1 -1 -1 -1 -1 -0 0 0 1 1 1 1 1 1 1 1 1 1 2 1 1 1 1 1 0 -0 -1 -1 -1 -1 -1 -1 -1 -1 -1 -1 -0 -0 -0 -0 -1 -1 -1 -1 -1
-1 -2 -2 -2 -2 -2 -3 -3 -2 -1 -0 -0 -1 -1 -2 -2 -1 -1 0 1 1 1 1 1 1 1 1 1 1 1 1 1 1 1 0 0 -0 -0 -0 -1 -1 -1 -1 -1 -1 -1 -1 -1 -1 -1 -0 -1 -1 -0 -0 -0 0 1 1 1 1 1 1 1 0 0 -0 -0 -0 -0 -0 -0 -1 -1 -1 -0 -0 -0 -0 -0 -0 -0 -0 -1 -1 -1
0 0 -0 -1 -1 -1 -1 -2 -2 -2 -1 0 0 0 0 -0 -1 -1 -1 -1 -0 0 1 1 0 -0 -1 -1 -0 0 0 1 1 1 1 1 1 1 0 -0 -0 -1 -1 -1 -1 -1 -1 -1 -1 -2 -2 -2 -2 -2 -2 -2 -1 -1 -0 -0 0 0 -0 -0 -0 -1 -1 -0 -0 -0 -0 -0 -0 -0 -0 -0 -0 -0 -0 -0 -0 -0 -1 -1 -1 -1
1 1 1 1 0 -0 0 0 -0 -1 -1 -0 -0 0 0 1 1 0 -1 -2 -2 -1 -1 -0 -0 -0 -0 -1 -1 -0 0 0 0 1 1 1 1 0 -0 -0 -1 -1 -1 -1 -2 -2 -2 -2 -2 -2 -2 -3 -3 -3 -3 -2 -2 -1 -1 -1 -0 -0 -1 -1 -1 -1 -1 -1 -1 -0 -0 -0 -1 -1 -0 -0 -0 -1 -1 -1 -1 -1 -1 -1 -1 -1
1 2 2 2 1 1 1 1 1 1 0 0 0 -0 -1 -0 0 1 1 -0 -1 -2 -2 -2 -1 -1 -0 0 -0 -0 -0 0 0 0 -0 -0 -0 -1 -1 -1 -1 -1 -1 -2 -2 -2 -2 -2 -2 -2 -2 -3 -3 -2 -2 -2 -1 -1 -0 -0 -0 -1 -1 -1 -1 -1 -1 -1 -1 -1 -1 -1 -1 -1 -0 -0 -1 -1 -0 -1 -1 -1 -1 -1 -1 -1
1 1 2 1 1 1 1 1 0 -0 -0 -0 0 0 -0 -1 -1 -0 0 0 0 0 0 -1 -2 -2 -1 -0 -0 -0 -1 -1 -1 -1 -1 -1 -2 -2 -1 -1 -2 -2 -2 -2 -2 -2 -2 -1 -2 -2 -2 -2 -2 -1 -1 -1 -0 -0 -0 -0 -1 -1 -2 -2 -2 -2 -1 -1 -1 -1 -1 -1 -1 -1 -1 -1 -1 -0 -0 -0 -1 -1 -1 -1 -1 -1
-0 -0 0 0 -0 -0 -0 -0 -0 -1 -1 -1 -1 -1 -0 -1 -1 -1 -1 -1 -0 0 1 1 1 0 -0 0 0 0 -1 -2 -3 -3 -3 -4 -3 -3 -2 -2 -2 -2 -2 -2 -2 -2 -2 -1 -2 -2 -3 -2 -2 -2 -1 -1 -1 -1 -1 -1 -1 -2 -2 -2 -2 -2 -2 -2 -2 -1 -1 -1 -1 -1 -1 -1 -0 -0 -0 -0 -0 -0 -0 -1 -1 -1
-1 -1 -1 -1 -2 -1 -1 -1 -1 -1 -2 -2 -2 -2 -2 -2 -1 -1 -1 -1 -1 -1 0 0 0 0 1 2 3 2 1 -0 -1 -2 -4 -5 -4 -3 -1 -0 -1 -2 -2 -1 -1 -2 -2 -1 -2 -3 -3 -3 -2 -2 -1 -1 -1 -1 -1 -1 -2 -2 -2 -2 -2 -2 -2 -2 -1 -1 -1 -1 -1 -1 -0 -0 -0 -0 -0 -0 -0 -0 -0 -0 -0 -0
-2 -1 -1 -2 -2 -2 -2 -2 -2 -2 -2 -2 -2 -2 -2 -2 -3 -2 -1 -2 -2 -2 -1 -1 -2 -2 -2 0 3 4 4 2 1 -1 -2 -4 -5 -3 2 3 2 0 -1 0 0 0 0 0 -0 -1 -1 -1 -1 -1 -0 0 -0 -0 -1 -1 -2 -2 -2 -1 -1 -1 -1 -1 -1 -1 -1 -1 -1 -0 -0 0 0 0 0 0 0 0 0 0 0 0
-1 -1 -1 -2 -2 -3 -3 -2 -2 -2 -2 -2 -2 -2 -2 -2 -3 -3 -3 -3 -2 -2 -2 -2 -2 -3 -5 -5 -3 1 5 4 2 -1 -2 -4 -6 -5 2 5 5 2 0 1 1 2 2 2 1 0 -0 -0 0 1 1 1 0 -0 -1 -1 -2 -2 -2 -1 -1 -1 -0 -1 -1 -1 -1 -1 -1 -0 -0 0 0 0 0 0 0 0 0 0 0 0
-1 -1 -1 -1 -2 -2 -2 -2 -3 -3 -2 -2 -3 -3 -3 -3 -3 -3 -3 -3 -3 -3 -3 -3 -3 -3 -3 -5 -7 -5 1 4 2 -1 -2 -5 -8 -7 -2 3 4 3 1 -0 -0 0 2 1 0 -0 -1 -1 -0 0 0 -0 -1 -1 -2 -2 -2 -2 -2 -2 -1 -1 -0 -0 -1 -1 -1 -1 -1 -1 -0 -0 0 0 0 0 0 1 1 0 0 0
-1 -0 0 0 -1 -1 -2 -2 -2 -2 -2 -2 -2 -3 -3 -4 -4 -3 -3 -3 -2 -2 -2 -3 -4 -4 -3 -4 -5 -5 -1 2 2 0 -2 -5 -8 -8 -4 1 2 2 0 -1 -1 -1 -1 -2 -2 -2 -1 -1 -1 -1 -1 -1 -1 -2 -2 -2 -2 -2 -2 -1 -1 -1 -0 -0 -1 -1 -1 -1 -1 -1 -0 -0 -0 0 0 0 0 0 0 0 0 0
-0 -0 1 1 1 -0 -1 -1 -1 -0 -0 -1 -1 -1 -2 -3 -3 -3 -3 -3 -3 -2 -2 -2 -2 -3 -3 -4 -4 -4 -2 1 2 1 -1 -4 -7 -8 -5 0 1 0 -2 -3 -3 -2 -2 -3 -3 -3 -2 -1 -1 -1 -1 -1 -1 -1 -1 -1 -1 -1 -1 -0 -0 -0 -0 -0 -1 -1 -1 -1 -1 -1 -0 -0 -0 0 0 0 0 0 0 0 0 0
-0 -0 -1 1 1 1 -1 -1 -1 -1 -0 -0 -1 -1 -2 -2 -3 -3 -4 -3 -3 -3 -3 -3 -3 -3 -3 -3 -3 -4 -2 1 2 0 -2 -4 -7 -9 -6 -0 1 0 -2 -4 -4 -3 -2 -3 -3 -2 -1 -1 -1 -1 -1 -1 -1 -1 -0 0 0 1 1 1 1 0 0 -0 -1 -1 -1 -1 -1 -1 -0 -0 -0 -0 0 0 0 0 0 0 0 0
0 -1 -2 -1 0 1 -0 -1 -2 -2 -1 -1 -1 -1 -2 -2 -3 -4 -5 -4 -3 -3 -3 -3 -4 -4 -3 -3 -3 -3 -2 1 3 2 0 -2 -7 -10 -8 -1 1 0 -2 -4 -4 -3 -2 -2 -2 -2 -1 -0 -1 -1 -1 -1 -1 -0 0 1 1 1 2 1 1 1 0 -0 -0 -1 -1 -1 -1 -1 -1 -0 -0 -0 -0 0 0 0 0 1 1 0
-0 -1 -1 -1 -1 -1 -1 -1 -2 -2 -2 -1 -1 -1 -2 -2 -2 -3 -4 -3 -3 -3 -3 -4 -4 -5 -4 -3 -3 -3 -2 1 2 3 4 1 -5 -10 -9 -2 -0 -1 -3 -3 -3 -3 -3 -2 -2 -1 -0 -1 -1 -2 -2 -2 -1 -0 0 1 1 2 2 2 1 1 0 0 -0 -0 -1 -1 -1 -1 -0 -0 -0 -0 0 0 0 0 1 1 1 1
-2 -1 -2 -2 -2 -2 -2 -2 -2 -2 -2 -2 -2 -2 -2 -2 -2 -2 -2 -2 -2 -2 -2 -3 -4 -5 -6 -5 -4 -4 -4 -1 2 4 4 2 -2 -6 -6 -2 -0 -1 -5 -4 -2 -2 -3 -3 -3 -1 0 -1 -2 -3 -3 -2 -2 -1 0 1 1 1 1 1 1 1 0 0 -0 -0 -0 -1 -1 -0 -0 -0 0 0 0 0 1 1 1 1 1 1
-2 -2 -2 -2 -2 -2 -2 -2 -2 -2 -2 -2 -2 -2 -3 -3 -3 -3 -3 -2 -1 -1 -1 -2 -3 -4 -6 -5 -5 -5 -6 -2 2 5 4 1 -2 -5 -6 -2 0 -0 -5 -5 -3 -1 -1 -3 -3 -2 -0 -2 -3 -4 -3 -3 -2 -1 -0 0 0 1 1 1 1 0 0 0 0 -0 -0 -0 -0 -0 -0 -0 0 0 1 1 1 1 1 1 2 2
-2 -2 -2 -1 -1 -1 -1 -1 -1 -1 -0 0 0 -0 -1 -2 -3 -3 -4 -3 -2 -1 -0 -1 -2 -3 -4 -3 -4 -5 -7 -4 0 3 5 3 -1 -4 -7 -4 -0 0 -3 -5 -4 -3 -1 -3 -4 -3 -1 -3 -4 -4 -3 -3 -2 -2 -1 -0 -0 0 0 0 0 0 0 0 0 0 -0 -0 -0 -0 0 0 0 1 1 1 1 1 2 2 2 2
-1 -1 -1 -1 -1 -1 -1 -1 -1 -0 0 1 2 2 2 1 -0 -2 -4 -4 -2 -1 0 -1 -2 -3 -4 -3 -4 -5 -6 -4 -1 1 3 4 1 -3 -8 -5 -2 -0 -2 -5 -5 -4 -1 -3 -3 -3 -2 -3 -4 -4 -3 -3 -2 -2 -1 -1 -1 -0 -0 -0 0 1 1 1 1 1 0 0 0 0 0 1 1 1 1 1 1 2 2 3 3 3
0 -0 -0 -1 -1 -1 -1 -1 -1 -1 -0 0 1 2 3 3 3 1 -2 -3 -2 -0 -1 -1 -1 -1 -2 -3 -4 -6 -5 -3 -2 0 3 4 2 -2 -6 -5 -3 -1 -1 -4 -6 -6 -3 -2 -2 -3 -3 -4 -3 -3 -3 -3 -2 -2 -2 -1 -1 -1 -1 -0 0 1 1 1 1 1 1 1 1 1 1 1 1 1 1 1 1 2 2 3 3 3
1 1 1 0 -0 -0 -1 -1 -1 -1 -1 -1 -0 0 1 3 3 2 -0 -1 -0 0 -1 -2 -1 -0 -0 -2 -4 -5 -6 -4 -2 0 3 4 1 -3 -5 -3 -3 -3 -1 -3 -6 -8 -7 -5 -3 -2 -3 -4 -4 -3 -3 -3 -2 -2 -2 -2 -1 -1 -1 -0 0 1 1 1 1 1 1 1 1 1 1 1 1 1 1 1 2 2 3 3 4 4
1 1 1 0 -0 -0 -0 -1 -1 -2 -2 -2 -2 -1 -1 1 2 2 0 0 1 1 -1 -2 -2 -1 -1 -1 -3 -5 -8 -7 -4 0 4 4 0 -4 -5 -3 -4 -5 -2 -1 -4 -8 -12 -10 -6 -3 -2 -3 -4 -4 -4 -3 -2 -2 -2 -2 -2 -2 -2 -1 0 0 1 1 1 1 1 1 1 1 1 2 2 2 2 2 2 2 3 4 4 4
0 1 0 -0 -0 -0 -0 -1 -1 -1 -2 -2 -2 -2 -2 -1 -1 -0 -0 -0 0 0 -0 -1 -2 -2 -1 0 -1 -3 -8 -9 -6 -1 4 4 0 -3 -3 -2 -4 -6 -4 0 1 -3 -10 -13 -12 -7 -3 -3 -3 -4 -4 -3 -2 -1 -1 -1 -2 -2 -2 -1 -0 -0 -0 -0 0 1 1 1 1 2 2 2 2 2 2 2 2 2 3 4 4 4
0 1 1 0 -0 -0 -0 -0 -1 -1 -2 -2 -2 -2 -2 -2 -2 -2 -2 -1 -1 -0 -0 -1 -2 -2 -2 -0 0 -1 -5 -6 -6 -3 2 3 -0 -3 -2 -1 -3 -6 -7 -3 1 2 -1 -8 -11 -10 -5 -4 -3 -3 -4 -3 -2 -1 -1 -1 -2 -3 -3 -1 -0 -0 -1 -0 0 1 1 1 2 2 2 2 2 2 2 2 2 2 3 4 4 4
0 1 1 1 0 0 0 0 0 -0 -1 -1 -2 -2 -2 -2 -2 -2 -2 -2 -2 -1 -1 -1 -2 -2 -3 -2 -2 -2 -4 -4 -4 -2 1 2 0 -3 -4 -2 -3 -4 -6 -6 -4 -2 1 -3 -7 -9 -8 -6 -4 -3 -3 -3 -2 -1 -0 -1 -2 -3 -3 -1 -0 0 -0 0 0 1 1 1 2 2 2 2 2 2 2 2 2 2 3 3 4 4
0 0 1 1 0 0 0 0 0 0 -1 -1 -2 -2 -2 -2 -3 -3 -3 -3 -3 -2 -1 -1 -1 -1 -2 -3 -4 -5 -6 -5 -4 -2 1 2 0 -2 -4 -3 -3 -4 -4 -5 -5 -5 -3 -4 -5 -6 -8 -9 -7 -6 -4 -3 -2 -1 -1 -1 -1 -2 -3 -2 -1 0 -0 0 0 0 0 1 1 2 2 2 2 2 2 2 2 2 2 2 3 3
-0 -0 0 0 0 -0 -1 -0 -0 -0 -1 -1 -2 -2 -2 -2 -3 -3 -3 -3 -3 -3 -2 -1 -1 -0 -0 -1 -2 -4 -7 -7 -5 -2 0 1 0 -1 -2 -4 -4 -3 -2 -3 -3 -3 -2 -3 -4 -4 -5 -8 -10 -10 -8 -5 -2 -1 -1 -1 -1 -2 -3 -2 -1 -0 -0 -0 -0 -0 -0 0 1 1 1 1 2 2 2 2 2 2 1 2 2 3
-1 -1 -1 -1 -0 -1 -1 -1 -1 -1 -1 -2 -2 -2 -2 -2 -2 -3 -3 -3 -3 -2 -2 -2 -2 -1 -0 1 0 -1 -4 -6 -5 -3 -1 -0 0 0 -1 -4 -4 -4 -1 -3 -3 -2 -0 -2 -2 -3 -3 -5 -8 -11 -12 -9 -6 -3 -3 -3 -2 -2 -3 -2 -2 -1 -0 -1 -1 -1 -1 -0 0 0 1 1 2 2 2 2 2 1 1 1 1 2
-1 -2 -2 -1 -1 -1 -2 -2 -2 -2 -1 -2 -2 -3 -3 -2 -3 -3 -3 -3 -2 -2 -2 -3 -3 -2 -2 -1 -1 -0 -2 -3 -4 -3 -2 -1 -0 0 0 -3 -4 -4 -2 -2 -2 -2 -1 -0 -1 -2 -1 -2 -4 -7 -10 -11 -10 -8 -7 -5 -4 -4 -5 -4 -3 -1 -1 -1 -1 -2 -2 -1 -1 -0 0 1 1 2 2 2 1 1 1 1 1 1
-1 -2 -2 -2 -1 -1 -1 -2 -2 -2 -2 -2 -2 -2 -3 -2 -2 -2 -2 -2 -2 -2 -2 -2 -3 -3 -3 -2 -2 -2 -2 -2 -3 -3 -3 -3 -2 -1 -0 -2 -5 -5 -4 -2 -1 -1 -0 0 0 -0 -1 -1 -2 -3 -6 -8 -9 -10 -10 -9 -7 -6 -7 -6 -5 -3 -3 -3 -2 -2 -2 -2 -1 -0 -0 0 1 1 1 0 -0 0 0 1 1 1
-1 -1 -1 -1 -1 -1 -1 -2 -2 -2 -2 -2 -2 -2 -2 -2 -2 -2 -2 -2 -1 -1 -1 -2 -2 -2 -3 -2 -2 -2 -2 -2 -2 -3 -3 -3 -2 -2 -1 -2 -4 -5 -6 -4 -2 -1 0 1 1 1 1 0 -1 -2 -4 -5 -6 -8 -9 -10 -10 -10 -10 -8 -7 -6 -6 -5 -4 -4 -4 -3 -1 -0 -0 -0 0 1 -0 -1 -2 -1 -1 -0 -0 -0
-1 -1 -1 -1 -1 -0 -0 -1 -2 -2 -2 -2 -2 -2 -2 -2 -2 -3 -3 -2 -2 -1 -1 -1 -2 -2 -2 -2 -2 -2 -1 -1 -1 -1 -1 -2 -2 -2 -1 -1 -2 -4 -5 -4 -3 -2 -0 0 0 0 1 2 1 -0 -2 -4 -6 -6 -6 -7 -9 -11 -10 -9 -9 -9 -8 -7 -6 -5 -5 -4 -2 -1 -0 -0 0 -0 -1 -2 -2 -2 -2 -1 -0 -0
-0 -1 -1 -1 -1 -0 -0 -1 -1 -1 -1 -1 -2 -2 -2 -2 -3 -3 -4 -4 -4 -3 -2 -2 -3 -4 -4 -4 -3 -2 -1 -1 -1 -1 -0 -1 -1 -2 -2 -2 -2 -2 -2 -3 -3 -3 -1 1 1 1 0 1 2 1 -1 -4 -5 -6 -5 -4 -5 -6 -6 -8 -9 -10 -8 -8 -7 -6 -4 -3 -2 -1 -1 -0 -1 -1 -2 -1 -2 -3 -3 -2 -1 -0
0 -0 -1 -1 -1 -1 -1 -1 -1 -1 -1 -1 -1 -1 -2 -2 -2 -2 -3 -4 -4 -4 -3 -2 -2 -3 -5 -6 -6 -5 -2 -1 -1 -0 -0 -0 -1 -1 -2 -2 -3 -2 -2 -2 -2 -2 -2 0 1 2 1 2 3 2 0 -3 -5 -5 -4 -3 -2 -2 -2 -6 -8 -8 -6 -7 -7 -6 -4 -3 -2 -1 -0 -1 -2 -3 -2 -1 -1 -2 -2 -3 -3 -2
0 0 -0 -0 -0 -0 -1 -1 -1 -1 -1 -1 -1 -2 -2 -1 -1 -1 -2 -3 -3 -3 -3 -2 -1 -1 -2 -5 -6 -7 -5 -3 -1 0 1 1 0 -1 -2 -3 -3 -3 -2 -1 -1 -2 -2 -1 0 1 1 3 4 4 2 -1 -3 -5 -4 -3 -1 1 1 -4 -6 -6 -5 -6 -6 -5 -4 -2 -1 -1 -0 -0 -1 -2 -2 -2 -2 -2 -2 -3 -3 -2
-0 -0 0 0 0 0 0 -0 -1 -1 -1 -1 -1 -2 -2 -2 -1 -1 -2 -3 -3 -3 -3 -3 -2 -2 -2 -3 -4 -5 -6 -5 -4 -2 0 1 1 1 -0 -2 -3 -3 -2 -1 -0 -1 -2 -1 -1 -0 1 2 3 3 1 -0 -2 -3 -4 -3 -1 1 1 -2 -3 -4 -5 -6 -6 -5 -4 -2 -1 -0 -0 -0 -1 -1 -1 -2 -2 -3 -3 -3 -2 -2
-0 -0 -0 0 0 1 0 -0 -1 -1 -1 -1 -1 -2 -2 -2 -1 -1 -1 -2 -3 -3 -3 -2 -2 -2 -3 -4 -4 -3 -4 -5 -5 -4 -2 -0 1 1 1 0 -1 -2 -2 -1 -0 1 1 1 -0 -1 0 2 2 2 1 -0 -1 -2 -3 -3 -1 -0 -0 -1 -1 -2 -2 -4 -4 -5 -4 -2 -0 1 0 -0 -0 -0 -0 -1 -2 -3 -4 -3 -3 -2
-0 -0 -1 -0 0 0 0 -0 -1 -1 -1 -2 -2 -2 -2 -2 -1 -1 -1 -1 -1 -2 -3 -2 -1 -0 -2 -3 -3 -3 -3 -4 -5 -5 -4 -2 -1 0 1 1 1 1 1 0 0 1 2 3 2 2 1 1 1 0 -1 -1 -0 -0 -1 -1 -1 -0 -1 -2 -2 -2 -1 -1 -2 -3 -4 -1 1 1 1 1 1 1 0 -0 -1 -1 -3 -3 -3 -3
-1 -1 -1 -1 -0 -0 -1 -1 -0 -1 -1 -2 -2 -2 -2 -1 -1 -1 -1 -1 -0 -0 -2 -2 -2 -1 -1 -2 -1 -1 -1 -3 -4 -5 -4 -3 -2 -1 0 0 1 1 2 2 2 2 2 3 4 4 3 3 2 -0 -2 -1 -0 1 1 1 1 1 -0 -2 -2 -2 -0 0 -1 -2 -2 0 1 1 -0 1 3 3 2 1 0 -0 -1 -2 -2 -2
0 -0 -0 -0 -0 -0 -1 -1 -1 -0 -1 -2 -3 -3 -3 -2 -1 -0 -1 -2 -1 -0 -1 -2 -2 -2 -2 -2 -2 -1 0 -1 -2 -3 -4 -3 -3 -2 -1 0 1 1 1 2 3 4 4 4 4 4 4 4 3 2 0 -0 0 1 2 2 2 2 1 -1 -1 -1 -0 -0 -0 -0 0 1 1 0 0 2 3 4 3 2 1 0 -0 -1 -1 -1
1 1 0 -0 -0 -0 -1 -1 -1 -1 -1 -2 -2 -3 -4 -3 -1 0 0 -0 -0 -0 -0 -0 -1 -1 -2 -3 -3 -2 -1 -1 -2 -2 -3 -3 -2 -2 -2 -1 -0 1 1 1 2 3 4 5 4 4 3 3 3 3 2 2 1 1 2 2 2 1 1 0 -0 -1 -0 -0 -0 0 1 1 1 1 2 3 4 4 4 4 2 0 -1 -1 -1 -1
0 0 0 0 -0 -1 -1 -1 -1 -1 -1 -2 -2 -2 -3 -4 -3 -2 -1 -0 0 0 0 0 0 -0 -1 -2 -3 -3 -2 -2 -2 -2 -3 -3 -2 -2 -2 -2 -1 0 1 1 2 4 5 5 5 3 1 1 2 3 4 3 3 2 2 1 1 1 2 1 0 -0 0 0 0 0 1 0 0 1 3 3 3 3 5 5 3 1 -1 -2 -1 -1
-1 -1 -1 -1 -1 -1 -1 -1 -1 -1 -1 -2 -2 -2 -3 -3 -3 -3 -2 -1 -0 -0 -0 0 1 1 0 -1 -2 -2 -2 -2 -2 -2 -3 -3 -2 -1 -2 -2 -1 0 1 1 2 3 5 7 6 4 0 -2 0 3 7 5 4 4 3 1 1 1 2 1 1 0 1 1 1 1 1 0 -0 -0 1 2 2 3 4 5 4 2 -1 -2 -2 -1
Height
5675 5673 5671 5669 5667 5665 5662 5660 5657 5655 5652 5650 5648 5646 5644 5642 5640 5639 5638 5637 5636 5635 5635 5634 5634 5635 5635 5636 5637 5637 5637 5636 5636 5635 5635 5635 5635 5636 5637 5638 5640 5641 5642 5643 5644 5644 5645 5646 5647 5647 5647 5648 5648 5648 5648 5649 5649 5649 5650 5650 5650 5650 5651 5651 5651 5652 5652 5652 5653 5653 5653 5653 5653 5653 5653 5653 5653 5653 5653 5653 5654 5654 5654 5654 5654 5654
5673 5671 5669 5667 5665 5663 5661 5659 5656 5654 5652 5650 5648 5646 5644 5642 5640 5639 5638 5637 5636 5636 5635 5635 5635 5635 5636 5637 5637 5636 5636 5636 5635 5635 5635 5635 5635 5636 5637 5638 5639 5640 5640 5641 5642 5643 5643 5644 5645 5645 5645 5645 5645 5645 5645 5645 5646 5646 5646 5646 5647 5647 5647 5647 5648 5648 5648 5648 5649 5649 5649 5649 5649 5649 5649 5649 5649 5649 5649 5649 5649 5649 5649 5649 5649 5650
5671 5670 5668 5666 5664 5662 5660 5658 5655 5653 5651 5650 5648 5645 5644 5642 5641 5640 5639 5638 5637 5636 5635 5635 5635 5636 5636 5636 5636 5635 5635 5635 5635 5635 5635 5635 5635 5635 5636 5637 5637 5638 5639 5639 5640 5640 5641 5641 5642 5642 5642 5642 5642 5642 5642 5642 5642 5642 5643 5643 5643 5643 5643 5643 5644 5644 5644 5644 5644 5644 5644 5644 5644 5644 5644 5644 5644 5644 5644 5644 5644 5644 5644 5645 5645 5645
5670 5668 5666 5665 5663 5661 5659 5657 5655 5653 5651 5649 5647 5645 5644 5642 5641 5640 5639 5638 5637 5636 5636 5635 5635 5636 5635 5635 5635 5635 5634 5634 5634 5634 5634 5634 5634 5635 5635 5635 5636 5636 5637 5637 5638 5638 5638 5638 5639 5639 5639 5639 5639 5639 5639 5639 5639 5639 5639 5639 5639 5640 5640 5640 5640 5640 5640 5640 5640 5640 5640 5640 5640 5640 5640 5639 5639 5639 5639 5639 5639 5640 5640 5640 5640 5640
5668 5666 5665 5663 5661 5659 5657 5655 5654 5652 5650 5649 5647 5645 5644 5642 5641 5640 5639 5638 5637 5636 5636 5635 5635 5635 5635 5634 5634 5633 5633 5633 5633 5633 5632 5633 5633 5633 5633 5634 5634 5634 5634 5635 5635 5635 5635 5635 5635 5635 5635 5635 5635 5635 5635 5635 5635 5636 5636 5636 5636 5636 5636 5636 5636 5636 5636 5636 5636 5636 5636 5635 5635 5635 5635 5635 5635 5635 5635 5635 5635 5635 5635 5635 5635 5635
5666 5665 5663 5661 5660 5658 5656 5654 5653 5651 5650 5648 5647 5645 5644 5642 5640 5639 5638 5637 5637 5636 5635 5635 5634 5634 5633 5633 5632 5632 5632 5632 5632 5631 5631 5631 5631 5631 5631 5631 5632 5632 5632 5632 5632 5632 5632 5632 5632 5632 5632 5632 5632 5632 5632 5632 5632 5632 5632 5632 5632 5632 5632 5632 5632 5632 5632 5632 5632 5631 5631 5631 5631 5630 5630 5630 5630 5630 5630 5630 5630 5630 5630 5630 5630 5630
5665 5663 5661 5660 5658 5656 5655 5653 5652 5650 5649 5648 5646 5645 5643 5642 5640 5639 5638 5637 5636 5636 5635 5634 5634 5633 5632 5632 5631 5631 5631 5631 5630 5630 5630 5630 5630 5630 5630 5630 5630 5630 5630 5630 5630 5630 5630 5630 5630 5630 5629 5629 5629 5629 5629 5629 5629 5629 5629 5629 5628 5628 5628 5628 5628 5628 5628 5628 5627 5627 5627 5627 5626 5626 5626 5626 5626 5626 5626 5626 5626 5626 5626 5625 5625 5625
5663 5662 5660 5659 5657 5655 5654 5652 5651 5649 5648 5647 5646 5645 5643 5642 5640 5639 5638 5637 5636 5635 5635 5634 5633 5632 5632 5631 5631 5630 5630 5630 5630 5629 5629 5629 5629 5629 5629 5629 5628 5628 5628 5628 5628 5628 5628 5627 5627 5627 5627 5626 5626 5626 5626 5626 5625 5625 5625 5625 5625 5625 5624 5624 5624 5624 5624 5623 5623 5623 5623 5622 5622 5622 5622 5622 5622 5622 5621 5621 5621 5621 5621 5621 5621 5621
5661 5660 5659 5657 5656 5654 5653 5651 5650 5648 5647 5646 5645 5644 5643 5642 5640 5639 5638 5637 5636 5635 5634 5633 5633 5632 5631 5630 5630 5629 5629 5629 5628 5628 5628 5628 5628 5627 5627 5627 5627 5626 5626 5626 5626 5625 5625 5625 5625 5625 5624 5624 5624 5623 5623 5623 5622 5622 5622 5622 5621 5621 5621 5620 5620 5620 5620 5619 5619 5619 5618 5618 5618 5618 5618 5617 5617 5617 5617 5616 5616 5616 5616 5616 5616 5616
5660 5659 5657 5656 5655 5653 5652 5650 5649 5647 5646 5645 5644 5642 5641 5640 5640 5639 5638 5637 5635 5634 5633 5633 5632 5631 5630 5629 5629 5628 5628 5627 5627 5626 5626 5626 5625 5625 5625 5625 5625 5624 5624 5624 5623 5623 5623 5622 5622 5622 5621 5621 5621 5620 5620 5620 5620 5619 5619 5619 5618 5618 5617 5617 5616 5616 5615 5615 5615 5615 5614 5614 5614 5613 5613 5613 5612 5612 5612 5611 5611 5611 5611 5611 5610 5610
5659 5657 5656 5655 5653 5652 5651 5649 5648 5646 5645 5644 5643 5641 5640 5639 5638 5637 5636 5636 5635 5634 5632 5631 5631 5630 5629 5629 5628 5627 5626 5626 5625 5625 5625 5624 5624 5623 5623 5622 5622 5622 5621 5621 5621 5620 5620 5620 5619 5619 5619 5618 5618 5617 5617 5617 5616 5616 5615 5615 5615 5614 5614 5613 5612 5612 5611 5611 5610 5610 5610 5609 5609 5609 5608 5608 5607 5607 5607 5606 5606 5606 5605 5605 5605 5605
5657 5656 5655 5653 5652 5651 5650 5648 5647 5645 5644 5643 5642 5640 5639 5638 5637 5635 5635 5634 5633 5632 5631 5630 5630 5629 5628 5627 5627 5626 5625 5625 5624 5623 5623 5622 5622 5621 5621 5620 5620 5619 5619 5619 5618 5618 5617 5617 5617 5616 5616 5615 5615 5615 5614 5614 5613 5613 5612 5612 5611 5610 5610 5609 5608 5608 5607 5606 5606 5605 5605 5604 5604 5603 5603 5602 5602 5601 5601 5601 5600 5600 5600 5599 5599 5599
5655 5654 5653 5652 5650 5649 5648 5647 5645 5644 5643 5642 5640 5639 5638 5637 5635 5634 5633 5632 5631 5630 5630 5629 5628 5627 5627 5626 5625 5625 5624 5623 5622 5622 5621 5620 5620 5619 5619 5618 5618 5617 5617 5616 5616 5615 5615 5615 5614 5614 5613 5613 5612 5612 5611 5610 5610 5609 5609 5608 5607 5606 5605 5605 5604 5603 5603 5602 5601 5600 5600 5599 5599 5598 5597 5597 5596 5596 5595 5595 5594 5594 5594 5593 5593 5593
5653 5652 5651 5650 5648 5647 5646 5645 5644 5642 5641 5640 5639 5638 5637 5635 5634 5633 5632 5631 5630 5629 5628 5627 5626 5626 5625 5624 5623 5623 5622 5621 5620 5620 5619 5618 5618 5617 5617 5616 5616 5615 5615 5614 5614 5613 5613 5612 5611 5611 5610 5610 5609 5609 5608 5607 5606 5605 5605 5604 5603 5602 5601 5600 5599 5599 5598 5597 5596 5595 5595 5594 5593 5592 5592 5591 5590 5590 5589 5589 5588 5588 5587 5587 5587 5586
5651 5650 5649 5647 5646 5645 5644 5643 5642 5640 5640 5639 5637 5636 5635 5634 5633 5632 5631 5630 5629 5628 5627 5626 5625 5624 5623 5622 5621 5620 5620 5619 5618 5617 5616 5616 5615 5615 5614 5614 5613 5613 5612 5612 5611 5611 5610 5609 5608 5607 5607 5606 5605 5605 5604 5603 5602 5601 5600 5599 5598 5597 5596 5595 5594 5593 5592 5591 5590 5590 5589 5588 5587 5586 5586 5585 5585 5584 5583 5583 5582 5581 5581 5581 5580 5580
5649 5648 5646 5645 5644 5643 5642 5641 5640 5639 5638 5637 5635 5635 5633 5632 5631 5630 5629 5628 5627 5626 5625 5624 5623 5622 5621 5620 5619 5618 5617 5616 5615 5615 5614 5613 5612 5611 5611 5610 5610 5610 5609 5608 5608 5607 5606 5605 5605 5604 5603 5602 5601 5600 5600 5598 5597 5596 5595 5594 5593 5592 5591 5590 5589 5588 5587 5585 5585 5584 5583 5582 5581 5580 5580 5579 5578 5578 5577 5576 5576 5575 5575 5574 5574 5574
5647 5646 5645 5643 5642 5641 5640 5639 5638 5637 5636 5635 5634 5633 5632 5630 5630 5629 5627 5626 5625 5624 5623 5622 5621 5620 5619 5618 5617 5616 5615 5614 5613 5612 5611 5610 5609 5609 5608 5608 5607 5606 5605 5605 5604 5603 5602 5601 5600 5599 5598 5597 5597 5596 5595 5594 5592 5591 5590 5589 5588 5586 5585 5584 5583 5582 5581 5580 5579 5578 5576 5575 5575 5574 5573 5573 5572 5571 5571 5570 5570 5569 5569 5568 5567 5567
5645 5644 5643 5641 5640 5639 5638 5637 5636 5635 5634 5633 5632 5630 5630 5628 5627 5626 5625 5624 5623 5622 5621 5620 5619 5618 5617 5616 5615 5614 5613 5612 5611 5610 5609 5608 5607 5606 5605 5605 5604 5603 5602 5601 5600 5600 5599 5597 5596 5595 5594 5594 5592 5591 5590 5589 5588 5586 5585 5584 5582 5581 5580 5579 5577 5576 5575 5574 5573 5571 5570 5570 5569 5568 5567 5566 5566 5565 5565 5564 5563 5563 5562 5562 5561 5561
5643 5642 5641 5640 5638 5637 5636 5635 5634 5633 5632 5631 5630 5629 5627 5626 5625 5624 5623 5622 5621 5620 5619 5617 5616 5615 5615 5613 5612 5612 5611 5610 5609 5608 5607 5605 5604 5603 5602 5602 5601 5600 5599 5598 5597 5596 5595 5594 5593 5591 5590 5589 5588 5587 5585 5584 5583 5581 5580 5578 5577 5575 5574 5573 5571 5570 5569 5567 5566 5565 5564 5563 5562 5562 5561 5560 5560 5559 5558 5558 5557 5556 5556 5555 5555 5555
5641 5640 5639 5638 5636 5635 5634 5633 5632 5631 5630 5628 5627 5626 5625 5624 5623 5622 5621 5620 5619 5617 5616 5615 5614 5613 5612 5611 5610 5609 5608 5607 5606 5605 5604 5602 5601 5600 5599 5598 5597 5596 5595 5594 5593 5592 5591 5589 5588 5587 5586 5585 5584 5582 5580 5579 5577 5576 5574 5573 5571 5569 5568 5566 5565 5564 5562 5561 5560 5559 5558 5557 5556 5555 5555 5554 5553 5553 5552 5551 5551 5550 5550 5550 5549 5548
5639 5638 5637 5635 5634 5633 5632 5631 5630 5628 5627 5626 5625 5624 5623 5622 5620 5620 5618 5617 5616 5615 5614 5612 5611 5610 5610 5608 5607 5606 5605 5604 5603 5602 5600 5599 5598 5596 5595 5595 5594 5593 5591 5590 5589 5588 5586 5585 5584 5583 5581 5580 5578 5577 5575 5573 5572 5570 5568 5567 5565 5563 5562 5560 5559 5557 5556 5555 5554 5552 5551 5551 5550 5549 5549 5548 5547 5547 5546 5545 5545 5545 5544 5543 5543 5542
5636 5635 5634 5633 5632 5631 5630 5628 5627 5626 5625 5624 5623 5622 5620 5619 5618 5617 5616 5615 5614 5612 5611 5610 5609 5607 5606 5605 5604 5603 5602 5601 5600 5598 5597 5595 5594 5593 5592 5591 5590 5589 5587 5586 5585 5583 5582 5580 5579 5578 5576 5575 5573 5571 5570 5568 5566 5564 5562 5561 5559 5557 5556 5554 5553 5551 5550 5549 5547 5546 5545 5545 5544 5543 5542 5542 5541 5540 5540 5540 5539 5539 5538 5538 5537 5537
5633 5632 5631 5630 5629 5628 5627 5626 5625 5623 5622 5621 5620 5619 5617 5616 5615 5614 5613 5612 5610 5609 5608 5607 5605 5604 5603 5602 5601 5600 5599 5598 5596 5595 5594 5592 5590 5589 5588 5587 5586 5585 5583 5582 5580 5579 5577 5576 5575 5573 5571 5570 5568 5566 5564 5562 5560 5559 5557 5555 5553 5552 5550 5548 5547 5545 5544 5543 5541 5540 5539 5538 5538 5537 5536 5536 5535 5535 5534 5534 5533 5533 5532 5532 5531 5531
5630 5630 5629 5627 5626 5625 5624 5623 5622 5621 5620 5618 5617 5616 5615 5613 5612 5611 5610 5609 5607 5606 5605 5604 5602 5601 5600 5599 5598 5596 5595 5595 5593 5592 5590 5589 5587 5586 5585 5584 5582 5581 5579 5578 5576 5575 5573 5571 5570 5569 5567 5565 5562 5560 5559 5557 5555 5553 5551 5550 5548 5546 5545 5543 5541 5540 5538 5537 5536 5535 5534 5533 5532 5531 5530 5530 5530 5529 5529 5528 5528 5527 5527 5526 5526 5525
5628 5627 5626 5625 5624 5623 5621 5620 5619 5618 5617 5615 5614 5613 5612 5610 5609 5608 5607 5605 5605 5603 5602 5601 5600 5598 5597 5596 5595 5593 5592 5591 5590 5588 5587 5585 5584 5582 5581 5580 5578 5577 5575 5574 5572 5570 5569 5567 5565 5564 5562 5559 5557 5555 5553 5551 5550 5548 5546 5544 5542 5541 5539 5537 5536 5534 5533 5531 5530 5529 5528 5527 5526 5525 5525 5525 5524 5524 5523 5523 5522 5522 5522 5521 5521 5520
5625 5624 5623 5622 5621 5620 5619 5618 5617 5615 5615 5613 5612 5610 5609 5608 5606 5605 5604 5603 5602 5600 5599 5598 5596 5595 5594 5592 5591 5590 5589 5587 5586 5585 5583 5581 5580 5578 5577 5576 5574 5572 5570 5569 5568 5566 5564 5562 5560 5559 5556 5554 5552 5550 5548 5546 5544 5542 5540 5539 5537 5535 5534 5532 5530 5529 5528 5526 5525 5524 5523 5522 5521 5520 5520 5519 5519 5518 5518 5517 5517 5517 5517 5516 5516 5515
5623 5622 5621 5620 5619 5617 5616 5615 5614 5613 5612 5610 5609 5608 5606 5605 5604 5602 5601 5600 5599 5598 5596 5594 5593 5591 5590 5589 5587 5586 5585 5584 5582 5581 5580 5578 5576 5574 5573 5571 5570 5568 5566 5564 5563 5561 5559 5557 5555 5554 5551 5549 5547 5545 5542 5540 5539 5537 5535 5534 5532 5530 5529 5527 5525 5524 5522 5521 5520 5519 5517 5516 5515 5515 5514 5514 5513 5513 5513 5512 5512 5512 5512 5512 5511 5511
5620 5619 5618 5617 5616 5615 5614 5612 5611 5610 5609 5608 5607 5605 5604 5602 5601 5600 5598 5597 5596 5594 5593 5591 5590 5588 5586 5585 5584 5582 5581 5580 5579 5577 5576 5574 5572 5570 5569 5567 5565 5564 5562 5560 5558 5556 5555 5552 5550 5548 5546 5544 5541 5539 5537 5535 5534 5532 5530 5528 5527 5525 5524 5522 5520 5519 5517 5516 5515 5513 5512 5511 5510 5510 5509 5509 5508 5508 5508 5508 5507 5507 5507 5507 5507 5506
5618 5617 5616 5615 5613 5612 5611 5609 5608 5607 5606 5605 5603 5602 5601 5600 5598 5597 5595 5594 5592 5591 5589 5588 5586 5585 5583 5581 5580 5579 5577 5576 5575 5574 5572 5570 5568 5566 5565 5563 5561 5559 5558 5555 5552 5551 5550 5548 5545 5543 5540 5538 5536 5534 5532 5530 5529 5527 5525 5523 5522 5520 5519 5517 5515 5514 5512 5511 5510 5508 5507 5506 5505 5505 5504 5504 5504 5503 5503 5503 5503 5503 5503 5502 5502 5502
5615 5614 5613 5612 5610 5609 5608 5606 5605 5604 5603 5601 5600 5599 5597 5596 5595 5593 5591 5590 5589 5587 5585 5584 5583 5581 5580 5578 5576 5574 5573 5572 5571 5570 5568 5565 5564 5562 5560 5558 5556 5555 5553 5550 5547 5545 5543 5542 5541 5538 5535 5533 5531 5529 5527 5525 5524 5522 5520 5518 5517 5515 5514 5512 5510 5509 5507 5506 5505 5503 5502 5501 5501 5500 5500 5499 5499 5499 5498 5498 5498 5498 5498 5498 5498 5497
5613 5611 5610 5609 5607 5606 5605 5603 5602 5600 5599 5598 5597 5595 5594 5592 5591 5590 5588 5586 5585 5584 5582 5580 5579 5577 5575 5574 5572 5570 5569 5568 5567 5565 5564 5561 5559 5558 5556 5554 5551 5550 5548 5546 5543 5540 5537 5535 5535 5533 5531 5528 5526 5524 5522 5521 5519 5517 5515 5513 5512 5510 5509 5507 5505 5504 5502 5501 5500 5498 5497 5497 5496 5495 5495 5495 5495 5494 5494 5494 5494 5494 5494 5494 5493 5493
5610 5609 5607 5606 5605 5603 5602 5600 5599 5597 5596 5595 5593 5592 5590 5589 5587 5586 5584 5583 5581 5580 5578 5576 5575 5573 5571 5570 5568 5566 5565 5563 5562 5561 5559 5557 5555 5553 5552 5550 5547 5545 5543 5541 5539 5535 5532 5529 5528 5527 5526 5524 5521 5519 5517 5516 5514 5512 5510 5509 5507 5505 5504 5502 5500 5499 5497 5496 5495 5494 5493 5492 5491 5491 5490 5490 5490 5490 5489 5489 5489 5489 5489 5489 5489 5489
5607 5605 5604 5603 5601 5600 5599 5597 5596 5594 5593 5591 5590 5588 5587 5585 5584 5582 5580 5579 5577 5575 5574 5572 5571 5569 5567 5565 5564 5562 5561 5559 5558 5556 5555 5553 5550 5549 5547 5545 5543 5540 5538 5535 5534 5531 5528 5525 5522 5520 5519 5518 5516 5515 5512 5511 5510 5508 5506 5504 5502 5500 5499 5497 5495 5494 5492 5491 5490 5489 5488 5487 5487 5486 5486 5485 5485 5485 5485 5485 5485 5485 5485 5485 5485 5485
5604 5602 5601 5600 5598 5597 5595 5594 5593 5591 5590 5588 5586 5585 5583 5582 5580 5578 5576 5575 5573 5571 5570 5568 5566 5565 5563 5561 5559 5558 5556 5555 5553 5552 5550 5548 5546 5544 5542 5540 5538 5536 5533 5530 5528 5526 5523 5520 5518 5515 5513 5511 5510 5509 5508 5506 5504 5503 5501 5499 5497 5495 5494 5492 5491 5489 5487 5486 5485 5484 5483 5482 5482 5481 5481 5481 5480 5480 5480 5480 5480 5480 5480 5480 5480 5480
5600 5599 5598 5596 5595 5594 5592 5591 5590 5588 5586 5585 5583 5581 5580 5578 5576 5575 5573 5571 5569 5567 5565 5564 5562 5560 5559 5557 5555 5553 5552 5550 5549 5547 5545 5544 5541 5539 5537 5535 5533 5531 5528 5525 5523 5521 5518 5515 5513 5510 5508 5505 5504 5503 5502 5501 5500 5498 5496 5494 5492 5490 5489 5487 5486 5484 5483 5481 5480 5479 5478 5477 5477 5476 5476 5476 5476 5476 5475 5475 5475 5475 5475 5475 5475 5475
5597 5596 5595 5593 5592 5590 5589 5588 5586 5585 5583 5581 5579 5578 5576 5574 5572 5571 5569 5567 5565 5563 5562 5560 5558 5556 5554 5553 5551 5549 5547 5545 5544 5542 5541 5539 5537 5535 5532 5530 5528 5526 5524 5521 5518 5516 5513 5510 5508 5505 5503 5500 5498 5496 5495 5495 5494 5493 5491 5489 5488 5486 5484 5482 5481 5480 5478 5476 5475 5474 5473 5472 5472 5471 5471 5471 5471 5471 5471 5471 5470 5470 5470 5470 5471 5471
5594 5593 5591 5590 5588 5587 5585 5584 5583 5581 5579 5578 5576 5574 5572 5570 5569 5567 5565 5563 5561 5560 5558 5556 5554 5552 5550 5548 5546 5545 5542 5540 5539 5538 5536 5534 5532 5530 5528 5525 5523 5521 5519 5516 5514 5511 5509 5506 5503 5500 5498 5496 5494 5491 5489 5488 5487 5487 5485 5484 5482 5480 5479 5477 5476 5475 5473 5471 5470 5469 5468 5467 5467 5466 5466 5466 5466 5466 5466 5466 5466 5466 5466 5466 5466 5466
5590 5589 5588 5586 5585 5584 5582 5580 5579 5577 5576 5574 5572 5570 5569 5567 5565 5563 5561 5560 5558 5556 5554 5552 5550 5548 5546 5544 5542 5540 5538 5536 5535 5533 5531 5529 5527 5525 5523 5520 5518 5515 5514 5512 5509 5506 5504 5501 5499 5496 5494 5491 5489 5487 5485 5483 5481 5480 5479 5478 5476 5475 5473 5472 5471 5470 5468 5466 5465 5464 5463 5462 5462 5461 5461 5461 5461 5461 5461 5461 5461 5461 5461 5461 5461 5461
5587 5586 5584 5583 5581 5580 5579 5577 5575 5574 5572 5570 5569 5567 5565 5563 5561 5560 5558 5556 5554 5552 5550 5548 5545 5544 5542 5540 5538 5536 5534 5532 5530 5528 5526 5525 5522 5520 5518 5516 5513 5510 5508 5506 5504 5502 5499 5497 5494 5492 5490 5487 5485 5483 5480 5479 5477 5475 5473 5471 5470 5469 5468 5466 5465 5464 5463 5461 5460 5459 5458 5457 5457 5456 5456 5456 5456 5456 5456 5456 5456 5456 5456 5456 5456 5457
5584 5582 5581 5580 5578 5576 5575 5573 5572 5570 5568 5567 5565 5563 5562 5560 5558 5556 5554 5552 5550 5548 5546 5544 5541 5540 5538 5536 5534 5532 5530 5528 5526 5524 5522 5520 5518 5516 5513 5511 5509 5506 5503 5501 5499 5497 5495 5492 5490 5488 5486 5483 5481 5478 5476 5474 5472 5470 5469 5466 5465 5463 5462 5460 5459 5458 5457 5456 5455 5454 5453 5452 5452 5452 5451 5451 5452 5452 5451 5451 5451 5451 5451 5452 5452 5452
5580 5579 5578 5576 5575 5573 5571 5570 5568 5566 5565 5563 5561 5560 5558 5556 5554 5552 5550 5548 5546 5544 5542 5540 5537 5535 5533 5531 5530 5528 5526 5524 5522 5520 5518 5515 5513 5511 5509 5506 5504 5501 5499 5496 5494 5492 5490 5488 5485 5483 5481 5479 5477 5474 5472 5470 5468 5466 5464 5462 5460 5458 5456 5455 5454 5453 5452 5451 5450 5449 5448 5448 5447 5447 5447 5447 5447 5447 5447 5447 5447 5446 5447 5447 5447 5447
5577 5575 5574 5572 5571 5569 5568 5566 5565 5563 5561 5560 5558 5556 5554 5552 5550 5548 5546 5544 5542 5540 5538 5536 5533 5531 5529 5527 5525 5524 5522 5520 5518 5516 5514 5511 5509 5506 5504 5501 5499 5497 5494 5492 5489 5487 5485 5483 5481 5479 5477 5475 5473 5470 5467 5465 5463 5461 5460 5458 5456 5454 5452 5450 5449 5448 5447 5446 5445 5444 5444 5443 5443 5443 5442 5442 5442 5442 5442 5442 5442 5442 5442 5442 5442 5442
5574 5572 5570 5569 5567 5566 5564 5563 5561 5559 5558 5556 5554 5552 5550 5549 5546 5544 5542 5540 5538 5536 5534 5531 5529 5527 5525 5523 5520 5519 5517 5515 5514 5512 5510 5507 5505 5502 5499 5497 5495 5492 5490 5487 5485 5482 5480 5478 5476 5475 5473 5471 5469 5466 5464 5461 5459 5457 5455 5454 5453 5451 5449 5446 5445 5444 5443 5441 5440 5440 5439 5439 5438 5438 5438 5438 5438 5438 5437 5437 5437 5437 5437 5437 5437 5437
5570 5569 5567 5565 5564 5562 5560 5559 5557 5556 5554 5552 5550 5549 5546 5545 5542 5540 5538 5536 5534 5531 5530 5527 5525 5523 5521 5519 5516 5514 5512 5510 5509 5507 5505 5503 5500 5498 5495 5492 5490 5487 5485 5483 5480 5478 5475 5473 5471 5470 5468 5466 5465 5462 5460 5458 5455 5454 5451 5450 5449 5447 5445 5443 5441 5440 5438 5437 5436 5435 5435 5434 5434 5434 5434 5434 5433 5433 5433 5433 5433 5433 5433 5433 5433 5433
5566 5565 5563 5562 5560 5559 5557 5555 5554 5552 5550 5549 5547 5545 5543 5540 5538 5536 5534 5532 5530 5527 5525 5523 5521 5518 5516 5514 5512 5510 5508 5505 5504 5502 5501 5499 5496 5494 5491 5488 5485 5483 5480 5478 5475 5473 5471 5469 5467 5465 5463 5462 5460 5458 5456 5454 5452 5450 5448 5446 5445 5443 5441 5440 5438 5436 5435 5433 5432 5431 5430 5430 5430 5430 5430 5430 5429 5429 5429 5429 5428 5428 5428 5428 5428 5428
5563 5561 5560 5559 5557 5555 5554 5552 5550 5548 5546 5545 5543 5541 5539 5537 5535 5532 5530 5528 5525 5523 5521 5519 5517 5514 5512 5510 5508 5505 5503 5501 5499 5498 5496 5494 5492 5490 5487 5484 5482 5479 5476 5473 5471 5468 5466 5464 5462 5460 5459 5457 5455 5454 5452 5450 5448 5446 5444 5442 5441 5439 5437 5435 5434 5432 5431 5429 5428 5427 5426 5426 5425 5425 5425 5425 5425 5425 5425 5424 5424 5424 5423 5423 5423 5423
5560 5558 5556 5555 5553 5552 5550 5548 5546 5545 5543 5541 5539 5537 5535 5533 5530 5528 5526 5524 5522 5519 5517 5515 5512 5510 5508 5505 5503 5501 5499 5497 5495 5493 5491 5489 5487 5485 5483 5480 5478 5475 5472 5470 5467 5464 5462 5460 5458 5456 5455 5453 5451 5449 5448 5446 5445 5443 5441 5439 5437 5435 5434 5432 5430 5428 5427 5425 5424 5423 5422 5422 5421 5421 5421 5421 5421 5421 5420 5420 5420 5419 5419 5419 5419 5418
5556 5555 5553 5551 5550 5548 5546 5545 5543 5541 5539 5537 5535 5533 5531 5529 5526 5524 5522 5520 5517 5515 5513 5510 5508 5506 5503 5501 5499 5497 5495 5492 5490 5488 5486 5484 5482 5480 5478 5476 5474 5471 5468 5466 5463 5460 5458 5456 5454 5452 5450 5449 5447 5445 5444 5442 5441 5439 5437 5435 5434 5432 5430 5428 5426 5425 5423 5422 5420 5419 5418 5418 5417 5417 5417 5417 5417 5417 5417 5416 5415 5415 5415 5415 5414 5414
5552 5551 5549 5548 5546 5544 5542 5541 5539 5537 5535 5533 5531 5528 5526 5524 5522 5520 5518 5515 5513 5511 5509 5506 5504 5501 5499 5497 5495 5493 5491 5488 5486 5484 5482 5480 5478 5475 5473 5471 5469 5467 5464 5462 5459 5456 5454 5452 5450 5448 5446 5445 5443 5442 5440 5439 5437 5435 5434 5432 5430 5429 5427 5425 5423 5421 5419 5418 5416 5415 5414 5414 5413 5413 5413 5413 5413 5413 5413 5412 5412 5411 5410 5410 5410 5410
5549 5547 5545 5544 5542 5540 5539 5537 5535 5533 5531 5529 5527 5524 5522 5520 5518 5516 5514 5511 5509 5507 5505 5502 5500 5497 5495 5492 5490 5488 5486 5484 5481 5479 5477 5475 5473 5471 5469 5467 5465 5463 5460 5458 5455 5453 5450 5448 5445 5444 5442 5441 5440 5438 5436 5435 5433 5431 5430 5428 5427 5425 5423 5421 5420 5417 5416 5414 5413 5411 5410 5409 5408 5408 5408 5408 5408 5408 5409 5409 5408 5407 5406 5405 5405 5405
5545 5543 5541 5540 5538 5536 5535 5533 5530 5529 5526 5524 5522 5520 5518 5516 5514 5511 5509 5507 5505 5503 5500 5498 5496 5493 5490 5488 5486 5484 5481 5479 5477 5475 5473 5470 5469 5466 5464 5462 5460 5458 5456 5453 5451 5449 5447 5445 5442 5440 5438 5437 5436 5435 5433 5431 5430 5428 5426 5425 5423 5421 5420 5418 5416 5414 5412 5411 5409 5408 5406 5405 5404 5403 5403 5403 5403 5403 5404 5404 5404 5403 5402 5401 5401 5400